Flag for Germany Weather past 2 weeks in Schloss Holte-Stukenbrock, North Rhine-Westphalia, Germany

Now
49 °F

Overcast.


Feels Like: 49 °F
Forecast: 43 / 57 °F
Wind: 2 mph from Northwest

Location: Bad Lippspringe

Current Time: May 26, 2015 at 3:46:39 AM

Latest Report: May 26, 2015 at 3:00 AM


Visibility: 25 mi

Pressure: 30.01 "Hg

Humidity: 77%

Dew point: 43 °F

Location of Schloss Holte-StukenbrockLocation

Historic Weather in Schloss Holte-Stukenbrock — Graph

°F

Schloss Holte-Stukenbrock temperature yesterday

Maximum temperature yesterday: 57 °F (at 6:00 PM)
Minimum temperature yesterday: 41 °F (at 3:00 AM)
Average temperature yesterday: 50 °F

Past Weeks' High & Low Weather Summary

 TemperatureHumidityPressure
High78 °F (May 12, 1:00 PM)98% (May 17, 5:00 AM)30.35 "Hg (May 17, 5:00 AM)
Low35 °F (May 17, 5:00 AM)37% (May 19, 4:00 PM)29.62 "Hg (May 18, 9:00 PM)
Average54 °F69%30.06 "Hg
* Reported May 11 2:00 AM — May 26 2:00 AM, Schloss Holte-Stukenbrock, Weather by CustomWeather, © 2015

Note: Actual official high and low records may vary slightly from our data, if they occured in-between our weather recording intervals... More about our weather records

Advertising

Schloss Holte-Stukenbrock weather history for previous 24 hours

 ConditionsComfort  
Time TempWeatherWind HumidityBarometerVisibility
2:00 AM
Tue, May 26
49 °FOvercast.1 mph89%30.00 "Hg22 mi
1:00 AM49 °FOvercast.1 mph93%30.00 "Hg22 mi
12:00 AM49 °FOvercast.1 mph94%29.99 "Hg19 mi
11:00 PM
Mon, May 25
49 °FOvercast.1 mph88%29.99 "Hg25 mi
10:00 PM51 °FOvercast.1 mph85%29.98 "Hg25 mi
9:00 PM55 °FOvercast.2 mph61%29.96 "Hg31 mi
8:00 PM57 °FOvercast.3 mph58%29.95 "Hg28 mi
7:00 PM57 °FOvercast.2 mph62%29.94 "Hg19 mi
6:00 PM57 °FPartly sunny.3 mph77%29.94 "Hg12 mi
5:00 PM56 °FOvercast.2 mph80%29.95 "Hg9 mi
4:00 PM53 °FOvercast.2 mph85%29.96 "Hg8 mi
3:00 PM52 °FLow clouds.2 mph91%29.97 "Hg4 mi
2:00 PM52 °FDrizzle. Low clouds.2 mph96%29.97 "Hg2 mi
1:00 PM51 °FDrizzle. Low clouds.3 mph94%29.98 "Hg2 mi
12:00 PM53 °FOvercast.2 mph87%29.98 "Hg5 mi
11:00 AM52 °FDrizzle. Overcast.3 mph83%29.98 "Hg5 mi
10:00 AM51 °FOvercast.2 mph84%30.00 "Hg6 mi
9:00 AM51 °FOvercast.1 mph88%30.00 "Hg3 mi
8:00 AM49 °FLight rain. Overcast.1 mph87%30.00 "Hg3 mi
7:00 AM47 °FLight rain. Overcast.No wind93%30.00 "Hg3 mi
6:00 AM44 °FFog.No wind97%30.00 "Hg4 mi
5:00 AM41 °FFog.1 mph97%30.00 "Hg4 mi
4:00 AM42 °FClear.1 mph95%30.01 "Hg7 mi
3:00 AM41 °FClear.1 mph97%30.01 "Hg5 mi
Weather by CustomWeather, © 2015

See weather overviewHow to use our weather pages